Preview of NWS' New Version of Forecast
This preview is not operational and should not be used for support decisions.

Regional Weather Roundup (RWR)

Issued by National Weather Service (NWS)

                            
000
ASUS43 KDMX 180206
RWRIA 

WEATHER ROUNDUP FOR IOWA
NATIONAL WEATHER SERVICE DES MOINES IA
900 PM CDT WED APR 17 2019

NOTE: "FAIR" INDICATES FEW OR NO CLOUDS BELOW 12,000 FEET WITH NO
SIGNIFICANT WEATHER AND/OR OBSTRUCTIONS TO VISIBILITY.

* - THESE STATIONS ARE NOT NWS STATIONS...THUS NOT UNDER NWS
QUALITY CONTROL.  THEY ALSO DO NOT REPORT WEATHER SUCH 
AS PRECIPITATION OR FOG.  

IAZ001>003-012>014-020>022-031>034-043>046-180300-
   NORTHWEST IOWA
  
CITY           SKY/WX    TMP DP  RH WIND       PRES   REMARKS
CARROLL *      CLOUDY    52  46  82 NW21G26   29.74R                  
CHEROKEE *     CLOUDY    46  42  87 NW15G25   29.78R                  
DENISON *      CLOUDY    50  45  81 NW15G23   29.79R                  
LE MARS *      CLOUDY    46  45  93 NW16G22   29.80R                  
SHELDON *        N/A     45  43  93 NW16      29.75R                  
SIOUX CITY     CLOUDY    48  41  76 NW20G28   29.81R                  
SPENCER        CLOUDY    46  40  79 NW21G32   29.73R                  
STORM LAKE *   CLOUDY    45  45 100 NW21G26   29.73R                  
$$
 
IAZ055>058-069>071-079>083-090>094-180300-
   SOUTHWEST IOWA
  
CITY           SKY/WX    TMP DP  RH WIND       PRES   REMARKS
ATLANTIC *     PTCLDY    52  46  82 NW18G24   29.75R                  
AUDUBON *      CLOUDY    50  45  81 CALM      29.77R                  
CLARINDA *     PTCLDY    55  46  71 N22G32    29.74R                  
COUNCIL BLFS * PTCLDY    52  46  82 NW14G25   29.77R                  
CRESTON *      PTCLDY    55  48  76 NW23G30   29.70R                  
HARLAN  *      CLEAR     50  45  81 NW15G25   29.77R                  
LAMONI         MOCLDY    60  50  69 NW13      29.67S                  
RED OAK *      CLEAR     54  45  71 NW15      29.75R                  
SHENANDOAH *   MOCLDY    55  45  67 NW17G26   29.74R                  
$$
 
IAZ047>049-059>061-072>074-084-180300-
   CENTRAL IOWA
  
CITY           SKY/WX    TMP DP  RH WIND       PRES   REMARKS
AMES           CLOUDY    53  46  77 W20G26    29.71R                  
ANKENY *       CLOUDY    54  48  82 MISG      29.70R                  
BOONE *        CLOUDY    52  50  93 W22G28    29.70R                  
CHARITON *     CLOUDY    59  52  77 NW17G24   29.68R                  
DES MOINES     CLOUDY    54  46  74 NW25G35   29.70R                  
GRINNELL*      CLOUDY    54  50  87 W21G30    29.67R                  
KNOXVILLE *    MOCLDY    55  55 100 NW21G29   29.68R                  
MARSHALLTOWN   CLOUDY    53  50  89 W23G30    29.65R                  
NEWTON *       CLOUDY    54  52  94 NW18G25   29.67R                  
PELLA *        CLOUDY    56  49  78 NW10G25   29.69R                  
PERRY *        CLOUDY    52  48  85 W17G24    29.73R                  
$$
 
IAZ004>006-015-016-023>025-035-036-180300-
   NORTH CENTRAL IOWA
  
CITY           SKY/WX    TMP DP  RH WIND       PRES   REMARKS
ALGONA *       CLOUDY    45  45 100 NW21G28   29.68R                  
CLARION *      CLOUDY    46  45  93 W20G29    29.69R                  
ESTHERVILLE    CLOUDY    42  40  92 NW23G35   29.69R                  
FORT DODGE *   CLOUDY    46  42  86 NW13G23   29.72R                  
MASON CITY     CLOUDY    47  46  97 W20G32    29.63R                  
FOREST CITY *  CLOUDY    46  45  93 NW17G33   29.64R                  
IOWA FALLS *   CLOUDY    50  46  88 W20G29    29.68R                  
$$

IAZ007>011-017>019-026>030-037>042-050>054-066-180300-
   NORTHEAST IOWA
  
CITY           SKY/WX    TMP DP  RH WIND       PRES   REMARKS
CEDAR RAPIDS   MOCLDY    56  54  93 W21G28    29.61R                  
CHARLES CITY * CLOUDY    50  48  93 W17G25    29.61R                  
CLINTON *      FAIR      70  59  68 SW21      29.56R                  
DECORAH *      CLOUDY    55  54  94 W14G22    29.52R                  
DUBUQUE        CLOUDY    65  57  75 W20G31    29.54R                  
MONTICELLO *   CLOUDY    63  61  94 W21G29    29.56R                  
OELWEIN *      CLOUDY    54  54 100 W18G25    29.58R                  
WATERLOO       CLOUDY    54  48  80 W17G33    29.61R                  
$$
 
IAZ064-065-067-068-078-180300-
   EAST CENTRAL IOWA
  
CITY           SKY/WX    TMP DP  RH WIND       PRES   REMARKS
DAVENPORT      MOCLDY    71  56  58 SW18G30   29.59R                  
IOWA CITY      CLOUDY    61  58  90 W18G33    29.62R                  
MT. PLEASANT * CLOUDY    70  61  73 SW12      29.60S                  
MUSCATINE *    CLOUDY    72  59  64 W18G24    29.60R                  
QUAD CITIES    FAIR      72  57  59 SW17G24   29.56R                  
$$
 
IAZ062-063-075>077-085>089-095>099-180300-
   SOUTHEAST IOWA
  
CITY           SKY/WX    TMP DP  RH WIND       PRES   REMARKS
BURLINGTON     CLOUDY    66  57  72 SW9       29.60F                  
FAIRFIELD *    CLOUDY    64  59  82 NW23G29   29.62R                  
FORT MADISON * CLOUDY    70  59  68 SW6       29.62S                  
KEOKUK *       PTCLDY    70  59  68 SW8       29.61S                  
OSKALOOSA *    FAIR      57  51  78 NW16      29.67R                  
CENTERVILLE *  MOCLDY    63  57  82 NW15G23   29.68R                  
OTTUMWA        CLOUDY    59  53  80 NW16G24   29.65R                  
WASHINGTON *   CLOUDY    66  64  94 W18       29.63R                  
$$

ABBREVIATIONS USED IN REMARKS
   TC - TEMPERATURES IN CELSIUS
  WCI - WIND CHILL INDEX
   HX - HEAT INDEX
  VSB - VISIBILITY  
$$